Find Starlink 37056

NORAD ID: 68260 Int'l Des: 2026-054 Owner: SPXS Country: US Constellation: starlink operational
LEOCIRCULAR

Current View

Loading 3D Globe...

About Starlink 37056

Starlink 37056 (NORAD 68260) is a starlink constellation satellite (v2 mini) launched Mar 17, 2026 by SPXS of US. It operates in LEO, CIRCULAR orbit with a mass of 575.00 kg.

About Starlink 37056

Description loading...

Upcoming Passes

Passes for default location (London). Set your location on the main map for personalized predictions.

Altitude History

Loading altitude history...

Two-Line Element Set

1 68260U 26054AE 26166.24509093 .00044721 00000-0 80691-3 0 9997
2 68260 53.1556 196.9375 0001228 108.4137 251.7006 15.49331031 14024
Epoch: Jun 15, 2026 • Age: 28 hours

Current Status

Altitude 423.4 km
Velocity 7.66 km/s
Sub-Earth Point 49.42°N, 163.72°W
Launch Date Mar 17, 2026
Age 0.2 years
Type internet

Technical Details

Classification Payload
Mass 575.00 kg
Dry Mass 530.00 kg
Total Mass 575.00 kg
Length 0.30 m
Diameter 4.10 m
Span 29.00 m
Shape Box + pan
Manufacturer SPXS
Bus Type Starlink V2MO
Phase Status In Orbit
Owner/State SPXS/US

Most Searched